Whidbey Island, WA

11:14 AM PDT on June 25, 2017 (GMT -0700)
Whidbey Island Naval Air Station

Weather History for KNUW - February, 2013

Change the Weather History Date:

Saturday, February 16, 2013

  Actual Average Record
Temperature  
Mean Temperature 44 °F -  
Max Temperature 48 °F 47 °F 57 °F (1998)
Min Temperature 39 °F 34 °F 28 °F (2005)
Degree Days  
Heating Degree Days 22    
Moisture  
Dew Point 39 °F    
Average Humidity 84    
Maximum Humidity 93    
Minimum Humidity 71    
Precipitation  
Precipitation 0.01 in - - ()
Sea Level Pressure  
Sea Level Pressure 30.16 in    
Wind  
Wind Speed 11 mph (SW)    
Max Wind Speed 30 mph    
Max Gust Speed 39 mph    
Visibility 9 miles    
Events Fog , Rain    
Averages and records for this station are not official NWS values.
T = Trace of Precipitation, MM = Missing Value Source: NWS Daily Summary

Daily Weather History Graph

Daily Weather History Graph

Search for Another Location

Airport or City:

Trip Planner

Search our weather history database for the weather conditions in past years. The results will help you decide how hot, cold, wet, or windy it might be!

Date:

Astronomy

Feb. 16, 2013 Rise Set
Actual Time 7:15 AM PST 5:34 PM PST
Civil Twilight 6:43 AM PST 6:06 PM PST
Nautical Twilight 6:06 AM PST 6:43 PM PST
Astronomical Twilight 5:30 AM PST 7:19 PM PST
Moon 9:56 AM PST (2/16) 12:13 AM PST (2/16)
Length of Visible Light 11h 23m
Length of Day
10h 19m
Waxing Crescent, 40% of the Moon is Illuminated
Feb 16
Waxing Crescent
Feb 17
First Quarter
Feb 25
Full
Mar 4
Last Quarter
Mar 11
New

Hourly Weather History & Observations

Time (PST) Temp. Windchill Dew Point Humidity Pressure Visibility Wind Dir Wind Speed Gust Speed Precip Events Conditions
12:56 AM 39.0 °F 36.8 °F 36.0 °F 89% 30.19 in 7.0 mi ESE 3.5 mph - N/A Fog Patches of Fog
1:56 AM 39.9 °F 35.8 °F 37.0 °F 89% 30.18 in 7.0 mi ESE 5.8 mph - N/A Fog Patches of Fog
2:29 AM 41.0 °F 38.0 °F 37.4 °F 87% 30.15 in 6.0 mi East 4.6 mph - N/A   Overcast
2:56 AM 41.0 °F 39.0 °F 37.9 °F 89% 30.17 in 6.0 mi ESE 3.5 mph - N/A   Overcast
3:56 AM 42.1 °F - 39.0 °F 89% 30.16 in 6.0 mi Calm Calm - N/A   Overcast
4:56 AM 42.1 °F 40.2 °F 39.9 °F 92% 30.15 in 6.0 mi SSE 3.5 mph - 0.00 in Rain Light Rain
5:56 AM 43.0 °F 41.3 °F 39.9 °F 89% 30.15 in 6.0 mi SE 3.5 mph - 0.00 in Rain Light Rain
6:43 AM 42.8 °F 40.1 °F 41.0 °F 93% 30.14 in 9.0 mi SE 4.6 mph - 0.00 in   Overcast
6:56 AM 43.0 °F 39.5 °F 41.0 °F 93% 30.15 in 7.0 mi SE 5.8 mph - 0.00 in   Overcast
7:56 AM 44.1 °F 40.8 °F 41.0 °F 89% 30.17 in 7.0 mi SE 5.8 mph - N/A   Overcast
8:14 AM 44.6 °F 40.2 °F 41.0 °F 87% 30.16 in 5.0 mi SSE 8.1 mph - N/A   Overcast
8:56 AM 45.0 °F 42.6 °F 42.1 °F 90% 30.17 in 10.0 mi South 4.6 mph - N/A   Overcast
9:56 AM 46.0 °F 40.2 °F 42.1 °F 86% 30.18 in 10.0 mi WSW 12.7 mph - 0.00 in Rain Light Rain
10:34 AM 46.4 °F 41.5 °F 42.8 °F 87% 30.16 in 10.0 mi West 10.4 mph - 0.01 in   Mostly Cloudy
10:56 AM 46.0 °F 40.2 °F 42.1 °F 86% 30.16 in 10.0 mi WSW 12.7 mph - 0.01 in   Mostly Cloudy
11:56 AM 46.9 °F - 39.9 °F 77% 30.16 in 10.0 mi West 23.0 mph 33.4 mph N/A   Mostly Cloudy
12:56 PM 48.9 °F - 39.9 °F 71% 30.14 in 10.0 mi West 24.2 mph 34.5 mph N/A   Mostly Cloudy
1:56 PM 46.9 °F - 39.0 °F 74% 30.13 in 10.0 mi West 26.5 mph 34.5 mph N/A   Mostly Cloudy
2:56 PM 46.0 °F 38.3 °F 39.0 °F 76% 30.15 in 10.0 mi West 20.7 mph 28.8 mph N/A   Mostly Cloudy
3:50 PM 44.6 °F 36.4 °F 39.2 °F 81% 30.14 in 10.0 mi West 20.7 mph 28.8 mph 0.00 in Rain Light Rain
3:56 PM 45.0 °F 36.4 °F 39.0 °F 80% 30.16 in 10.0 mi West 23.0 mph 29.9 mph 0.00 in Rain Light Rain
4:17 PM 44.6 °F 35.9 °F 39.2 °F 81% 30.14 in 10.0 mi West 23.0 mph 28.8 mph 0.00 in   Overcast
4:56 PM 45.0 °F 35.2 °F 39.0 °F 80% 30.14 in 10.0 mi West 29.9 mph 35.7 mph 0.00 in   Overcast
5:56 PM 45.0 °F 35.2 °F 37.9 °F 76% 30.14 in 10.0 mi West 29.9 mph 39.1 mph N/A   Mostly Cloudy
6:56 PM 45.0 °F 35.8 °F 39.0 °F 80% 30.15 in 10.0 mi West 26.5 mph 38.0 mph N/A   Mostly Cloudy
7:56 PM 45.0 °F 36.0 °F 37.9 °F 76% 30.16 in 10.0 mi West 25.3 mph 38.0 mph N/A   Overcast
8:56 PM 44.1 °F 35.2 °F 39.0 °F 82% 30.17 in 10.0 mi West 23.0 mph 33.4 mph N/A   Mostly Cloudy
9:56 PM 44.1 °F 35.2 °F 39.0 °F 82% 30.17 in 10.0 mi West 23.0 mph 29.9 mph N/A   Mostly Cloudy
10:56 PM 44.1 °F 35.2 °F 39.0 °F 82% 30.19 in 10.0 mi West 23.0 mph 29.9 mph N/A   Overcast
11:56 PM 44.1 °F 36.2 °F 37.9 °F 79% 30.19 in 10.0 mi West 18.4 mph 26.5 mph N/A   Overcast